Home > Weather > Langen > Past weeks

Flag for Germany Past Weather in Langen, Hesse, Germany — Yesterday and Last 2 Weeks

Now
68 °F

Sunny.


Feels Like: 68 °F
Forecast: 52 / 73 °F
Wind: 9 mph from West

Location: Frankfurt-M-Flughafen Airport

Current Time: Jul 31, 2016 at 9:35:19 AM

Latest Report: Jul 31, 2016 at 8:50 AM


Visibility: 10 mi

Pressure: 29.89 "Hg

Humidity: 73%

Dew Point: 59 °F

Location of LangenLocation

Past Weather in Langen — Graph

°F

Langen Temperature Yesterday

Maximum temperature yesterday: 81 °F (at 3:50 PM)
Minimum temperature yesterday: 64 °F (at 2:50 AM)
Average temperature yesterday: 71 °F

High & Low Weather Summary for the Past Weeks

 TemperatureHumidityPressure
High95 °F (Jul 20, 2:50 PM)100% (Jul 22, 4:50 AM)30.30 "Hg (Jul 22, 4:50 AM)
Low57 °F (Jul 19, 5:20 AM)22% (Jul 20, 6:20 PM)29.86 "Hg (Jul 31, 5:20 AM)
Average72 °F70%30.05 "Hg
* Reported Jul 16 8:20 AM — Jul 31 8:20 AM, Langen, Weather by CustomWeather, © 2016

Note: Actual official high and low records may vary slightly from our data, if they occured in-between our weather recording intervals... More about our weather records

Advertising

Langen Weather History for the Previous 24 Hours

Scroll right to see more
 ConditionsComfort  
Time TempWeatherWind HumidityBarometerVisibility
8:20 AM
Sun, Jul 31
68 °FPassing clouds.5 mph73%29.89 "HgN/A
7:50 AM66 °FPassing clouds.3 mph83%29.89 "HgN/A
7:20 AM63 °FSunny.2 mph94%29.89 "Hg10 mi
6:50 AM63 °FClear.2 mph88%29.89 "Hg10 mi
6:20 AM61 °FClear.1 mph94%29.89 "Hg10 mi
5:50 AM61 °FClear.2 mph94%29.89 "Hg10 mi
5:20 AM61 °FClear.2 mph94%29.86 "Hg10 mi
4:50 AM63 °FClear.3 mph94%29.89 "Hg10 mi
4:20 AM63 °FClear.2 mph94%29.89 "Hg10 mi
3:50 AM63 °FClear.3 mph94%29.89 "Hg10 mi
3:20 AM64 °FPassing clouds.3 mph88%29.89 "HgN/A
2:50 AM64 °FClear.2 mph88%29.89 "Hg10 mi
2:20 AM64 °FClear.2 mph88%29.89 "Hg10 mi
1:50 AM64 °FPassing clouds.2 mph94%29.89 "HgN/A
1:20 AM66 °FSprinkles. Passing clouds.3 mph78%29.89 "HgN/A
12:50 AM66 °FClear.6 mph78%29.89 "Hg10 mi
12:20 AM66 °FClear.2 mph78%29.89 "Hg10 mi
11:50 PM
Sat, Jul 30
68 °FClear.6 mph73%29.89 "Hg10 mi
11:20 PM70 °FPassing clouds.5 mph64%29.89 "HgN/A
10:50 PM70 °FPassing clouds.8 mph64%29.89 "HgN/A
10:20 PM72 °FPassing clouds.6 mph61%29.92 "HgN/A
9:50 PM73 °FPassing clouds.6 mph57%29.89 "HgN/A
9:20 PM73 °FPartly sunny.6 mph53%29.89 "HgN/A
8:50 PM75 °FPartly sunny.8 mph50%29.89 "HgN/A
8:20 PM75 °FBroken clouds.7 mph50%29.89 "HgN/A
7:50 PM75 °FBroken clouds.9 mph50%29.89 "HgN/A
7:20 PM77 °FBroken clouds.6 mph54%29.89 "HgN/A
6:50 PM77 °FBroken clouds.6 mph54%29.89 "HgN/A
6:20 PM79 °FBroken clouds.7 mph51%29.89 "HgN/A
5:50 PM79 °FBroken clouds.6 mph48%29.89 "HgN/A
5:20 PM79 °FBroken clouds.8 mph48%29.89 "HgN/A
4:50 PM79 °FBroken clouds.8 mph48%29.89 "HgN/A
4:20 PM81 °FBroken clouds.10 mph48%29.89 "HgN/A
3:50 PM81 °FBroken clouds.7 mph48%29.92 "HgN/A
3:20 PM79 °FBroken clouds.7 mph51%29.92 "HgN/A
2:50 PM77 °FBroken clouds.7 mph54%29.92 "HgN/A
2:20 PM79 °FScattered clouds.8 mph48%29.92 "HgN/A
1:50 PM77 °FScattered clouds.9 mph51%29.92 "HgN/A
1:20 PM75 °FPartly sunny.7 mph54%29.92 "HgN/A
12:50 PM75 °FPartly sunny.9 mph57%29.92 "HgN/A
12:20 PM75 °FScattered clouds.7 mph57%29.92 "HgN/A
11:50 AM73 °FScattered clouds.9 mph65%29.92 "HgN/A
11:20 AM73 °FScattered clouds.6 mph65%29.92 "HgN/A
10:50 AM73 °FScattered clouds.6 mph65%29.92 "HgN/A
10:20 AM72 °FPartly sunny.8 mph69%29.95 "HgN/A
9:50 AM72 °FPartly sunny.8 mph69%29.95 "HgN/A
9:20 AM68 °FPartly sunny.8 mph78%29.95 "HgN/A
Weather by CustomWeather, © 2016

See weather overviewHow to use our weather pages